Simultaneous Nadir Overpasses (SNOs) Predictions

Prediction of SNOs between GOES-16 and NOAA-19 Satellite Orbit:

Table of predicted SNOs for the next 14.0 days since TLE Epoch: 11/4/2022
Index Date Time (GOES-16) GOES-16 Lat,Lon NOAA-19 Lat,Lon Distance(km) Time Diff (sec)
1 11/05/2022 13:09:51 -0.06, -75.20 0.11, -75.97 88.09 80
2 11/06/2022 13:00:36 -0.06, -75.20 -0.53, -73.06 243.82 80
3 11/09/2022 01:18:31 0.05, -75.21 -0.57, -77.95 312.59 80
4 11/10/2022 01:06:36 0.05, -75.22 0.06, -75.04 19.82 80
5 11/11/2022 00:57:23 0.05, -75.23 0.76, -72.15 351.93 80
6 11/13/2022 13:15:02 -0.04, -75.27 0.34, -76.96 192.57 80
7 11/14/2022 13:05:47 -0.03, -75.29 -0.32, -74.06 140.34 80
8 11/15/2022 12:53:53 -0.03, -75.30 -0.98, -71.15 473.38 80
9 11/17/2022 01:26:22 0.03, -75.31 -0.83, -78.94 413.90 80
10 11/18/2022 01:14:29 0.02, -75.33 -0.11, -76.04 80.53 80
